Weather History for Togiak, AK

Change the Weather History Date:

Thursday, November 15, 2012

  Actual Average Record
Temperature  
Mean Temperature 25 °F -  
Max Temperature 33 °F 31 °F 46 °F (1996)
Min Temperature 17 °F 22 °F 0 °F (2001)
Degree Days  
Heating Degree Days 40    
Moisture  
Dew Point 14 °F    
Average Humidity 70    
Maximum Humidity 93    
Minimum Humidity 42    
Precipitation  
Precipitation 0.00 in - - ()
Sea Level Pressure  
Sea Level Pressure 29.68 in    
Wind  
Wind Speed 9 mph (NNW)    
Max Wind Speed 21 mph    
Max Gust Speed 28 mph    
Visibility 9 miles    
Events      
Averages and records for this station are not official NWS values.
T = Trace of Precipitation, MM = Missing Value Source: NWS Daily Summary

Daily Weather History Graph

Daily Weather History Graph

Search for Another Location

Airport:

Trip Planner

Search our weather history database for the weather conditions in past years. The results will help you decide how hot, cold, wet, or windy it might be!

Date:

Astronomy

Nov. 15, 2012 Rise Set
Actual Time 9:35 AM AKST 5:16 PM AKST
Civil Twilight 8:48 AM AKST 6:03 PM AKST
Nautical Twilight 7:57 AM AKST 6:53 PM AKST
Astronomical Twilight 7:10 AM AKST 7:41 PM AKST
Moon 12:03 PM AKST (11/15) 7:01 PM AKST (11/15)
Length of Visible Light 9h 15m
Length of Day
7h 40m
Waxing Crescent, 6% of the Moon is Illuminated
Nov 15
Waxing Crescent
Nov 20
First Quarter
Nov 28
Full
Dec 6
Last Quarter
Dec 12
New

Hourly Weather History & Observations

Time (AKST) Temp. Windchill Dew Point Humidity Pressure Visibility Wind Dir Wind Speed Gust Speed Precip Events Conditions
12:16 AM 33.8 °F - 30.2 °F 87% 29.46 in 10.0 mi Calm Calm - N/A   Overcast
12:36 AM 33.8 °F - 30.2 °F 87% 29.46 in 10.0 mi Calm Calm - N/A   Mostly Cloudy
12:56 AM 33.8 °F - 30.2 °F 87% 29.47 in 10.0 mi Calm Calm - N/A   Mostly Cloudy
1:16 AM 33.8 °F - 30.2 °F 87% 29.47 in 10.0 mi Calm Calm - N/A   Overcast
1:36 AM 32.0 °F - 30.2 °F 93% 29.48 in 10.0 mi Calm Calm - N/A   Overcast
1:56 AM 33.8 °F - 30.2 °F 87% 29.48 in 10.0 mi Calm Calm - N/A   Overcast
2:16 AM 33.8 °F 27.7 °F 32.0 °F 93% 29.49 in 10.0 mi West 6.9 mph - N/A   Overcast
2:56 AM 33.8 °F 30.8 °F 30.2 °F 87% 29.49 in 10.0 mi West 3.5 mph - N/A   Overcast
3:36 AM 32.0 °F 23.6 °F 28.4 °F 87% 29.50 in 7.0 mi NW 10.4 mph 16.1 mph N/A   Overcast
3:56 AM 32.0 °F 25.6 °F 28.4 °F 87% 29.50 in 4.0 mi WNW 6.9 mph - N/A   Overcast
4:16 AM 30.2 °F 22.6 °F 26.6 °F 86% 29.51 in 1.5 mi NNW 8.1 mph - N/A   Overcast
4:36 AM 28.4 °F 18.5 °F 24.8 °F 86% 29.51 in 6.0 mi NW 11.5 mph - N/A   Overcast
4:56 AM 28.4 °F 18.5 °F 24.8 °F 86% 29.51 in 5.0 mi NW 11.5 mph - N/A   Overcast
5:16 AM 28.4 °F 18.5 °F 23.0 °F 80% 29.51 in 10.0 mi NW 11.5 mph - N/A   Overcast
5:36 AM 28.4 °F 17.5 °F 21.2 °F 74% 29.51 in 10.0 mi NNW 13.8 mph - N/A   Overcast
5:56 AM 28.4 °F 17.5 °F 21.2 °F 74% 29.52 in 10.0 mi North 13.8 mph - N/A   Overcast
6:16 AM 26.6 °F 15.2 °F 19.4 °F 74% 29.52 in 10.0 mi NNW 13.8 mph 17.3 mph N/A   Overcast
6:36 AM 24.8 °F 14.0 °F 19.4 °F 80% 29.53 in 10.0 mi NNW 11.5 mph - N/A   Overcast
6:56 AM 24.8 °F 11.5 °F 19.4 °F 80% 29.53 in 2.5 mi NNW 17.3 mph - N/A   Mostly Cloudy
7:16 AM 21.2 °F 6.8 °F 17.6 °F 86% 29.54 in 2.0 mi NNW 17.3 mph 21.9 mph N/A   Overcast
7:36 AM 21.2 °F 5.6 °F 17.6 °F 86% 29.55 in 3.0 mi NNW 20.7 mph - N/A   Overcast
7:56 AM 21.2 °F 6.0 °F 15.8 °F 80% 29.56 in 3.0 mi NNW 19.6 mph 25.3 mph N/A   Overcast
8:16 AM 19.4 °F 3.2 °F 15.8 °F 86% 29.56 in 4.0 mi NNW 20.7 mph 26.5 mph N/A   Overcast
8:36 AM 21.2 °F 6.8 °F 15.8 °F 80% 29.57 in 6.0 mi NNW 17.3 mph 23.0 mph N/A   Overcast
8:56 AM 19.4 °F 3.6 °F 12.2 °F 74% 29.58 in 7.0 mi NNW 19.6 mph 24.2 mph N/A   Overcast
9:16 AM 19.4 °F 4.1 °F 12.2 °F 74% 29.59 in 9.0 mi NNW 18.4 mph - N/A   Overcast
9:36 AM 17.6 °F 1.7 °F 10.4 °F 73% 29.60 in 10.0 mi NNW 18.4 mph 25.3 mph N/A   Overcast
9:56 AM 17.6 °F 0.9 °F 10.4 °F 73% 29.61 in 10.0 mi NNW 20.7 mph 27.6 mph N/A   Overcast
10:16 AM 17.6 °F 1.3 °F 10.4 °F 73% 29.63 in 10.0 mi NNW 19.6 mph 25.3 mph N/A   Overcast
10:36 AM 17.6 °F 2.7 °F 10.4 °F 73% 29.64 in 10.0 mi NNW 16.1 mph - N/A   Overcast
10:56 AM 17.6 °F 2.2 °F 10.4 °F 73% 29.65 in 10.0 mi NNW 17.3 mph - N/A   Overcast
11:16 AM 17.6 °F 3.7 °F 10.4 °F 73% 29.66 in 10.0 mi NNW 13.8 mph - N/A   Overcast
11:36 AM 19.4 °F 4.5 °F 10.4 °F 68% 29.66 in 10.0 mi NNW 17.3 mph 23.0 mph N/A   Mostly Cloudy
11:56 AM 17.6 °F 1.3 °F 8.6 °F 68% 29.68 in 10.0 mi North 19.6 mph 23.0 mph N/A   Partly Cloudy
12:16 PM 19.4 °F 5.0 °F 10.4 °F 68% 29.68 in 10.0 mi NNW 16.1 mph 20.7 mph N/A   Partly Cloudy
12:36 PM 19.4 °F 4.1 °F 8.6 °F 63% 29.69 in 10.0 mi NNW 18.4 mph 21.9 mph N/A   Clear
12:56 PM 19.4 °F 5.5 °F 10.4 °F 68% 29.70 in 10.0 mi NNW 15.0 mph - N/A   Clear
1:16 PM 19.4 °F 5.0 °F 10.4 °F 68% 29.71 in 10.0 mi NNW 16.1 mph - N/A   Clear
1:36 PM 19.4 °F 4.1 °F 10.4 °F 68% 29.71 in 10.0 mi NNW 18.4 mph - N/A   Clear
1:56 PM 19.4 °F 7.2 °F 8.6 °F 63% 29.72 in 10.0 mi NNW 11.5 mph 20.7 mph N/A   Clear
2:16 PM 19.4 °F 5.0 °F 8.6 °F 63% 29.72 in 10.0 mi NNW 16.1 mph 19.6 mph N/A   Clear
2:36 PM 21.2 °F 7.8 °F 10.4 °F 63% 29.72 in 10.0 mi NNW 15.0 mph - N/A   Clear
2:56 PM 21.2 °F 8.9 °F 10.4 °F 63% 29.73 in 10.0 mi North 12.7 mph - N/A   Clear
3:16 PM 19.4 °F 6.6 °F 8.6 °F 63% 29.74 in 10.0 mi North 12.7 mph - N/A   Clear
3:36 PM 21.2 °F 9.5 °F 8.6 °F 58% 29.74 in 10.0 mi NNW 11.5 mph - N/A   Clear
3:56 PM 21.2 °F 10.9 °F 8.6 °F 58% 29.75 in 10.0 mi North 9.2 mph 19.6 mph N/A   Clear
4:16 PM 19.4 °F 7.2 °F 6.8 °F 58% 29.75 in 10.0 mi NNW 11.5 mph 17.3 mph N/A   Clear
4:36 PM 19.4 °F 4.5 °F 8.6 °F 63% 29.76 in 10.0 mi NNW 17.3 mph 21.9 mph N/A   Clear
4:56 PM 19.4 °F 5.5 °F 8.6 °F 63% 29.76 in 10.0 mi North 15.0 mph 21.9 mph N/A   Clear
5:16 PM 19.4 °F 3.6 °F 8.6 °F 63% 29.76 in 10.0 mi North 19.6 mph - N/A   Clear
5:36 PM 19.4 °F 5.0 °F 8.6 °F 63% 29.78 in 10.0 mi North 16.1 mph - N/A   Clear
5:56 PM 19.4 °F 6.6 °F 6.8 °F 58% 29.79 in 10.0 mi NNW 12.7 mph - N/A   Clear
6:16 PM 19.4 °F 5.5 °F 8.6 °F 63% 29.79 in 10.0 mi North 15.0 mph - N/A   Clear
6:36 PM 19.4 °F 5.5 °F 8.6 °F 63% 29.81 in 10.0 mi NNW 15.0 mph - N/A   Clear
6:56 PM 19.4 °F 6.6 °F 6.8 °F 58% 29.82 in 10.0 mi North 12.7 mph - N/A   Clear
7:16 PM 19.4 °F 7.2 °F 6.8 °F 58% 29.82 in 10.0 mi North 11.5 mph - N/A   Clear
7:36 PM 19.4 °F 8.6 °F 8.6 °F 63% 29.84 in 10.0 mi NNW 9.2 mph - N/A   Clear
7:56 PM 19.4 °F 9.5 °F 8.6 °F 63% 29.85 in 10.0 mi West 8.1 mph - N/A   Clear
8:16 PM 17.6 °F 8.2 °F 6.8 °F 63% 29.86 in 10.0 mi West 6.9 mph - N/A   Clear
8:36 PM 19.4 °F 9.5 °F 8.6 °F 63% 29.86 in 10.0 mi WNW 8.1 mph - N/A   Clear
8:56 PM 19.4 °F 12.8 °F 6.8 °F 58% 29.87 in 10.0 mi WNW 4.6 mph - N/A   Clear
9:16 PM 19.4 °F 10.4 °F 6.8 °F 58% 29.87 in 10.0 mi NNW 6.9 mph - N/A   Clear
9:36 PM 19.4 °F 10.4 °F 8.6 °F 63% 29.87 in 10.0 mi NNW 6.9 mph - N/A   Clear
9:56 PM 19.4 °F 14.3 °F 6.8 °F 58% 29.88 in 10.0 mi ENE 3.5 mph - N/A   Clear
10:16 PM 19.4 °F - 5.0 °F 54% 29.90 in 10.0 mi Calm Calm - N/A   Clear
10:36 PM 19.4 °F - 3.2 °F 49% 29.91 in 10.0 mi Calm Calm - N/A   Clear
10:56 PM 21.2 °F 14.9 °F 3.2 °F 46% 29.92 in 10.0 mi ENE 4.6 mph - N/A   Clear
11:16 PM 19.4 °F - 1.4 °F 46% 29.93 in 10.0 mi Calm Calm - N/A   Clear
11:36 PM 19.4 °F - 1.4 °F 46% 29.95 in 10.0 mi Calm Calm - N/A   Clear
11:56 PM 19.4 °F 8.6 °F -0.4 °F 42% 29.94 in 10.0 mi North 9.2 mph 16.1 mph N/A   Clear